Regional Weather Roundup
Issued by NWS

Home | Current Version | Previous Version | Graphics & Text | Print | Product List | Glossary On
Versions: 1 2 3 4 5 6 7 8 9 10 11 12 13 14 15 16 17 18 19 20 21 22 23 24 25 26 27 28 29 30 31 32 33 34 35 36 37 38 39 40 41 42 43 44 45 46 47 48 49 50
000
ASUS45 KABQ 300310
RWRNM
WEATHER ROUNDUP FOR NEW MEXICO
NATIONAL WEATHER SERVICE ALBUQUERQUE NM
900 PM MDT WED OCT 29 2014

NOTE: "FAIR" MEANS FEW OR NO CLOUDS BELOW 12,000 FEET AGL WITH NO
       SIGNIFICANT WEATHER OR OBSTRUCTIONS TO VISION.

      THIS PRODUCT IS RELEASED AS TWO VERSIONS.  ONE VERSION NEAR
      THE TOP OF THE HOUR CONTAINING PRELIMINARY DATA FROM ALBUQUERQUE
      AND OTHER STATIONS.  A FINAL VERSION WITH ADDITIONAL DATA IS
      ISSUED ABOUT 10 MINUTES AFTER THE HOUR.

NMZ501-503-504-510>518-300400-
NORTHWEST PLATEAU/NORTHCENTRAL MOUNTAINS

CITY           SKY/WX    TMP DP  RH WIND       PRES   REMARKS
FARMINGTON     CLEAR     48  10  21 W8        30.25S
LOS ALAMOS     CLEAR     56   8  15 W5        30.31S
SANTA FE       CLEAR     47  15  27 NE10      30.27R
TAOS           CLEAR     39   7  26 E6        30.31S WCI  35
ANGEL FIRE     FAIR      32  12  44 CALM      30.35S

$$
NMZ402-403-502-505>509-300400-
WESTCENTRAL MOUNTAINS/SOUTHWEST MOUNTAINS

CITY           SKY/WX    TMP DP  RH WIND       PRES   REMARKS
GALLUP         CLEAR     43  16  33 CALM      30.33R
GRANTS         CLEAR     46  12  25 N6        30.33S
SILVER CITY    CLEAR     55  37  50 N8        30.26R

$$
NMZ407-409-411-412-300400-
SOUTHERN DESERTS

CITY           SKY/WX    TMP DP  RH WIND       PRES   REMARKS
LORDSBURG      FAIR      59  37  44 S9        30.17R
DEMING         CLEAR     59  40  49 CALM      30.18R
LAS CRUCES     CLEAR     57  40  52 W5        30.20R
HOLLOMAN AFB   CLEAR     58  34  40 E6        30.16R
T OR C         CLEAR     60  32  34 W7        30.20R

$$
NMZ519>523-300400-
CENTRAL VALLEYS/CENTRAL HIGHLANDS

CITY           SKY/WX    TMP DP  RH WIND       PRES   REMARKS
ALBUQUERQUE    CLEAR     63  13  14 NW6       30.25R
DOUBLE EAGLE   CLEAR     55  12  18 NW8       30.27R
MORIARTY ARPT  FAIR      43  16  34 CALM      30.28R
CLINES CORNERS CLEAR     46  14  27 W9        30.28R
BELEN          NOT AVBL
SOCORRO        FAIR      60  31  34 W5        30.21R

$$
NMZ524>526-539-540-300400-
SOUTHCENTRAL MOUNTAINS

CITY           SKY/WX    TMP DP  RH WIND       PRES   REMARKS
RUIDOSO        CLEAR     52  27  37 W7        30.32R

$$
NMZ527>531-300400-
NORTHEAST HIGHLANDS/NORTHEAST PLAINS

CITY           SKY/WX    TMP DP  RH WIND       PRES   REMARKS
LAS VEGAS      CLEAR     51   8  17 S7        30.23S
RATON          CLEAR     47  24  40 N7        30.17F
CLAYTON        CLEAR     53  28  38 SW9       30.12S

$$
NMZ532>537-300400-
EASTCENTRAL PLAINS

CITY           SKY/WX    TMP DP  RH WIND       PRES   REMARKS
TUCUMCARI      CLEAR     59  42  53 W6        30.10R
CANNON AFB     CLEAR     52  40  64 SW6       30.15S
CLOVIS AIRPORT CLEAR     54  39  58 SW9       30.17S

$$
NMZ028-029-538-300400-
SOUTHEAST PLAINS

CITY           SKY/WX    TMP DP  RH WIND       PRES   REMARKS
ROSWELL        CLEAR     56  49  77 SW9       30.15S
CARLSBAD       CLEAR     60  52  74 S8        30.14S
HOBBS          CLEAR     55  48  76 S7        30.18S


$$



USA.gov is the U.S. government's official web portal to all federal, state and local government web resources and services.